AJC8007 KMIA-CYMX

Flight info

Callsign AJC8007
Flight time N/A
Altitude 36000
Route FOLZZ3 ALYRA DCT GRUBR Y299 SEELO DCT WAALT Q131 EARZZ DCT JAMIE Q133 PBERG DCT LATTS DCT EBDOT DCT DUNUP
Aircraft B77L/H-SDE1E2E3FGHIJ2J3J4J5M1RWXY/LB1D1

Departure

Time N/A
Airport Miami International Airport (KMIA)

Arrival

Time 2026-05-03 22:27
Airport Montreal Mirabel International Airport (CYMX)
Time Latitude Longitude Altitude Speed Heading
2026-05-03 22:08 44.84026 -73.53894 20973 ft 379 kts 351°
2026-05-03 22:08 44.86644 -73.54195 20467 ft 375 kts 352°
2026-05-03 22:09 44.89235 -73.54486 19951 ft 373 kts 352°
2026-05-03 22:09 44.91813 -73.54773 19418 ft 371 kts 352°
2026-05-03 22:09 44.94347 -73.55055 18935 ft 369 kts 352°
2026-05-03 22:10 44.99435 -73.55624 17941 ft 365 kts 352°
2026-05-03 22:10 45.01951 -73.55907 17435 ft 363 kts 352°
2026-05-03 22:10 45.04458 -73.56188 16958 ft 359 kts 352°
2026-05-03 22:10 45.06939 -73.56466 16495 ft 356 kts 352°
2026-05-03 22:11 45.09391 -73.56742 16036 ft 353 kts 352°
2026-05-03 22:11 45.11834 -73.57009 15588 ft 350 kts 352°
2026-05-03 22:11 45.14256 -73.57270 15138 ft 348 kts 352°
2026-05-03 22:11 45.16630 -73.57525 14696 ft 346 kts 352°
2026-05-03 22:12 45.19022 -73.57783 14277 ft 344 kts 352°
2026-05-03 22:12 45.21398 -73.58041 13847 ft 342 kts 352°
2026-05-03 22:12 45.23759 -73.58297 13420 ft 340 kts 352°
2026-05-03 22:12 45.26111 -73.58551 12963 ft 337 kts 352°
2026-05-03 22:13 45.28447 -73.58805 12478 ft 336 kts 352°
2026-05-03 22:13 45.30709 -73.59236 12143 ft 328 kts 346°
2026-05-03 22:13 45.32896 -73.59827 12085 ft 316 kts 346°
2026-05-03 22:13 45.34989 -73.60399 11997 ft 305 kts 346°
2026-05-03 22:14 45.37039 -73.60960 11927 ft 295 kts 345°
2026-05-03 22:14 45.39016 -73.61499 11854 ft 285 kts 345°
2026-05-03 22:14 45.41049 -73.62062 11900 ft 324 kts 346°
2026-05-03 22:14 45.43249 -73.62671 12214 ft 317 kts 346°
2026-05-03 22:15 45.45310 -73.63223 12155 ft 290 kts 346°
2026-05-03 22:15 45.47223 -73.63735 11929 ft 270 kts 345°
2026-05-03 22:15 45.49024 -73.64221 11529 ft 257 kts 345°
2026-05-03 22:15 45.50749 -73.64690 11029 ft 251 kts 345°
2026-05-03 22:16 45.52460 -73.65157 10437 ft 248 kts 345°
2026-05-03 22:16 45.54118 -73.65610 9926 ft 243 kts 345°
2026-05-03 22:16 45.55761 -73.66058 9432 ft 238 kts 345°
2026-05-03 22:16 45.57357 -73.66492 8929 ft 231 kts 345°
2026-05-03 22:17 45.58906 -73.66914 8415 ft 222 kts 345°
2026-05-03 22:17 45.60397 -73.67320 7939 ft 214 kts 345°
2026-05-03 22:17 45.61837 -73.67714 7397 ft 210 kts 345°
2026-05-03 22:17 45.63269 -73.68106 6823 ft 209 kts 344°
2026-05-03 22:18 45.64694 -73.68498 6247 ft 209 kts 345°
2026-05-03 22:18 45.66089 -73.68879 5927 ft 199 kts 345°
2026-05-03 22:18 45.67458 -73.69255 5703 ft 205 kts 345°
2026-05-03 22:18 45.68852 -73.69638 5480 ft 209 kts 345°
2026-05-03 22:19 45.70294 -73.70032 5247 ft 212 kts 345°
2026-05-03 22:19 45.71736 -73.70426 4995 ft 210 kts 345°
2026-05-03 22:19 45.73157 -73.70814 4755 ft 205 kts 345°
2026-05-03 22:19 45.74526 -73.71187 4545 ft 198 kts 345°
2026-05-03 22:20 45.75867 -73.71557 4304 ft 194 kts 343°
2026-05-03 22:20 45.77000 -73.72402 4068 ft 179 kts 313°
2026-05-03 22:20 45.77859 -73.73647 3889 ft 173 kts 312°
2026-05-03 22:20 45.78695 -73.74823 3676 ft 164 kts 312°
2026-05-03 22:21 45.79480 -73.75931 3594 ft 159 kts 312°
2026-05-03 22:21 45.80265 -73.77043 3516 ft 158 kts 311°
2026-05-03 22:21 45.80882 -73.78243 3431 ft 142 kts 287°
2026-05-03 22:21 45.81061 -73.79550 3376 ft 129 kts 276°
2026-05-03 22:22 45.81110 -73.80814 3327 ft 127 kts 269°
2026-05-03 22:22 45.80758 -73.81954 3257 ft 132 kts 230°
2026-05-03 22:22 45.80143 -73.82925 3190 ft 135 kts 236°
2026-05-03 22:22 45.79590 -73.83958 3096 ft 131 kts 236°
2026-05-03 22:23 45.79003 -73.84956 2986 ft 130 kts 233°
2026-05-03 22:23 45.78394 -73.85900 2810 ft 131 kts 230°
2026-05-03 22:23 45.77753 -73.86843 2628 ft 132 kts 231°
2026-05-03 22:23 45.77114 -73.87770 2463 ft 129 kts 230°
2026-05-03 22:24 45.76488 -73.88669 2274 ft 128 kts 230°
2026-05-03 22:24 45.75844 -73.89595 2112 ft 132 kts 230°
2026-05-03 22:24 45.75196 -73.90526 1912 ft 132 kts 229°
2026-05-03 22:24 45.74555 -73.91440 1741 ft 129 kts 230°
2026-05-03 22:25 45.73926 -73.92343 1560 ft 133 kts 229°
2026-05-03 22:25 45.73283 -73.93262 1393 ft 132 kts 229°
2026-05-03 22:25 45.72661 -73.94153 1207 ft 132 kts 229°
2026-05-03 22:25 45.72118 -73.94930 1036 ft 127 kts 230°
2026-05-03 22:26 45.71604 -73.95666 916 ft 131 kts 227°
2026-05-03 22:26 45.70955 -73.96591 727 ft 133 kts 226°
2026-05-03 22:26 45.70381 -73.97408 578 ft 131 kts 225°
2026-05-03 22:26 45.69827 -73.98202 415 ft 131 kts 227°
2026-05-03 22:27 45.69271 -73.99006 315 ft 122 kts 226°
2026-05-03 22:27 45.68839 -73.99615 264 ft 102 kts 224°
2026-05-03 22:27 45.68492 -74.00101 270 ft 22 kts 224°
2026-05-03 22:27 45.68360 -74.00288 266 ft 37 kts 228°
2026-05-03 22:28 45.68199 -74.00572 268 ft 36 kts 236°
2026-05-03 22:28 45.68118 -74.00876 271 ft 31 kts 253°
2026-05-03 22:28 45.68051 -74.01147 272 ft 26 kts 254°
2026-05-03 22:28 45.68063 -74.01392 272 ft 26 kts 303°
2026-05-03 22:29 45.68185 -74.01576 272 ft 26 kts 314°
2026-05-03 22:29 45.68272 -74.01713 272 ft 8 kts 305°
2026-05-03 22:29 45.68257 -74.01799 273 ft 13 kts 231°
2026-05-03 22:29 45.68215 -74.01942 276 ft 15 kts 292°
2026-05-03 22:30 45.68221 -74.01953 275 ft 0 kts 311°